Regional Weather Roundup
Issued by NWS

Home | Current Version | Previous Version | Text Only | Print | Product List | Glossary On
Versions: 1 2 3 4 5 6 7 8 9 10 11 12 13 14 15 16 17 18 19 20 21 22 23 24 25 26 27 28 29 30 31 32 33 34 35 36 37 38 39 40 41 42 43 44 45 46 47 48 49 50
000
ASMX46 KSGX 131511
RWRMX

MEXICAN WEATHER ROUNDUP
NATIONAL WEATHER SERVICE SAN DIEGO CA
700 AM PST WED DEC 13 2017

BAJA CALIFORNIA

CITY           SKY/WX    TMP DP  RH WIND       PRES   REMARKS
ENSENADA NW      N/A     61  32  33 CALM      29.94R
LA PAZ         PTSUNNY   61  48  63 S3        30.02R
LORETO         MOSUNNY   64  52  63 NW9       29.99R
MEXICALI       CLEAR     45  18  33 CALM      30.04R
S.J. DEL CABO  CLOUDY    68  55  64 N6        30.02R
TIJUANA        CLEAR     55   1  11 E6        30.04R

NORTHWESTERN MEXICO

CITY           SKY/WX    TMP DP  RH WIND       PRES   REMARKS
CHIHUAHUA      MOSUNNY   34  32  93 CALM      30.23R
CULIACAN       PTSUNNY   64  59  82 CALM      29.99R
GUAYMAS        CLEAR     64  46  52 CALM      29.93R
HERMOSILLO     CLEAR     59  37  44 CALM      30.00R
JUAREZ         SUNNY     39  18  41 CALM      30.21S
OBREGON        SUNNY     59  52  77 SE3       29.95R

NORTHEASTERN MEXICO

CITY           SKY/WX    TMP DP  RH WIND       PRES   REMARKS
SALTILLO       PTSUNNY   43  36  75 CALM      30.28R
VICTORIA       MOSUNNY   50  37  62 MISG      30.24R

WESTERN MEXICO

CITY           SKY/WX    TMP DP  RH WIND       PRES   REMARKS
AGUASCALIENTES PTSUNNY   46  18  31 N6        30.37R
COLIMA         MOSUNNY   68  55  64 CALM      30.13R
DURANGO        LGT RAIN  39  36  87 SE8       30.33R WCI  34
GUADALAJARA    PTSUNNY   52  27  37 CALM      30.29R
MAZATLAN       LGT RAIN  66  66 100 SE5       30.03R
PTO. VALLARTA  MOSUNNY   66  57  72 NE6       30.03R
TEPIC          CLOUDY    57  50  77 CALM      30.16
URUAPAN        PTSUNNY   52  46  82 CALM      30.26
ZACATECAS      PTSUNNY   46  21  36 CALM      30.33R

CENTRAL MEXICO

CITY           SKY/WX    TMP DP  RH WIND       PRES   REMARKS
CUERNAVACA     PTSUNNY   63  39  42 CALM      30.30R
LEON           PTSUNNY   45  25  45 CALM      30.40R
MEXICO CITY    MOSUNNY   43  30  61 E6        30.43R
MORELIA        MOSUNNY   48  28  46 CALM      30.36R
POZA RICA        N/A    N/A N/A N/A MISG        N/A
QUERETARO      SUNNY     43  34  70 CALM      30.41
S. LUIS POTOSI PTSUNNY   41  19  42 CALM      30.35R
TAMPICO        MOSUNNY   64  54  68 MISG      30.24
TOLUCA         MOSUNNY   37  28  70 S5        30.44  WCI  34
VERACRUZ       CLOUDY    66  63  88 S7        30.22

SOUTHERN MEXICO

CITY           SKY/WX    TMP DP  RH WIND       PRES   REMARKS
ACAPULCO       MOSUNNY   77  64  65 N6        30.00R
B. DE HUATULCO SUNNY    N/A N/A N/A CALM      30.04R
OAXACA         MOSUNNY   52  43  71 CALM      30.38S
PTO. ESCONDIDO SUNNY     70  61  73 NE6       30.10
TAPACHULA      SUNNY     82  70  65 E3        29.98R
TUX. GUTIERREZ MOSUNNY   63  54  72 N3        30.21R
VILLAHERMOSA   FOG       63  63 100 CALM      30.22R VSB 1/2
ZIHUATANEJO    MOSUNNY   77  70  78 E7        30.01

YUCATAN PENINSULA

CITY           SKY/WX    TMP DP  RH WIND       PRES   REMARKS
CAMPECHE       MOSUNNY   68  64  88 CALM      30.15R
CANCUN         SUNNY     70  61  73 W8        30.15S
CHETUMAL       SUNNY     68  59  73 NW6       30.19R
C. DEL CARMEN  MOSUNNY  N/A N/A N/A CALM      30.21R
COZUMEL        SUNNY     73  63  68 NW14      30.14R
MERIDA         MOSUNNY   72  57  60 CALM      30.17R

$$




USA.gov is the U.S. government's official web portal to all federal, state and local government web resources and services.